Pineville, WV

4:51 PM EST on December 11, 2017 (GMT -0500)
Pineville

Weather History for KI16 - November, 2012

Change the Weather History Date:

Sunday, November 18, 2012

  Actual Average (KBKW) Record (KBKW)
Temperature  
Mean Temperature 44 °F -  
Max Temperature 60 °F 52 °F 76 °F (1921)
Min Temperature 28 °F 34 °F 10 °F (1959)
Degree Days  
Heating Degree Days 21    
Moisture  
Dew Point 34 °F    
Average Humidity 79    
Maximum Humidity 99    
Minimum Humidity 43    
Precipitation  
Precipitation 0.00 in - - ()
Sea Level Pressure  
Sea Level Pressure 30.49 in    
Wind  
Wind Speed - (North)    
Max Wind Speed -    
Max Gust Speed -    
Visibility 10 miles    
Events      
Averages and records for this station are not official NWS values.
T = Trace of Precipitation, MM = Missing Value Source: NWS Daily Summary

Daily Weather History Graph

Daily Weather History Graph

Search for Another Location

Airport or City:

Trip Planner

Search our weather history database for the weather conditions in past years. The results will help you decide how hot, cold, wet, or windy it might be!

Date:

Astronomy

Nov. 18, 2012 Rise Set
Actual Time 7:09 AM EST 5:12 PM EST
Civil Twilight 6:41 AM EST 5:41 PM EST
Nautical Twilight 6:09 AM EST 6:12 PM EST
Astronomical Twilight 5:38 AM EST 6:44 PM EST
Moon 11:36 AM EST (11/18) 10:29 PM EST (11/18)
Length of Visible Light 10h 59m
Length of Day
10h 03m
Waxing Crescent, 30% of the Moon is Illuminated
Nov 18
Waxing Crescent
Nov 20
First Quarter
Nov 28
Full
Dec 6
Last Quarter
Dec 13
New

Hourly Weather History & Observations

Time (EST) Temp. Dew Point Humidity Pressure Visibility Wind Dir Wind Speed Gust Speed Precip Events Conditions
12:15 AM 32.0 °F 29.8 °F 92% 30.50 in 10.0 mi North - - N/A   Clear
12:35 AM 32.0 °F 30.0 °F 92% 30.50 in 10.0 mi North - - N/A   Clear
12:55 AM 32.0 °F 30.0 °F 92% 30.50 in 10.0 mi North - - N/A   Clear
1:15 AM 32.0 °F 30.0 °F 92% 30.50 in 10.0 mi North - - N/A   Clear
1:35 AM 31.6 °F 29.3 °F 91% 30.49 in 10.0 mi North - - N/A   Clear
1:55 AM 31.1 °F 29.1 °F 92% 30.50 in 10.0 mi North - - N/A   Clear
2:15 AM 31.1 °F 29.3 °F 93% 30.51 in 10.0 mi North - - N/A   Clear
2:35 AM 30.9 °F 29.1 °F 93% 30.51 in 10.0 mi North - - N/A   Clear
2:55 AM 30.9 °F 29.1 °F 93% 30.51 in 10.0 mi North - - N/A   Clear
3:15 AM 30.9 °F 29.3 °F 94% 30.51 in 10.0 mi North - - N/A   Clear
3:35 AM 30.4 °F 28.9 °F 94% 30.51 in 10.0 mi North - - N/A   Clear
3:55 AM 30.4 °F 28.8 °F 94% 30.51 in 10.0 mi North - - N/A   Clear
4:15 AM 30.2 °F 28.8 °F 94% 30.51 in 10.0 mi North - - N/A   Clear
4:35 AM 29.8 °F 28.4 °F 94% 30.51 in 10.0 mi North - - N/A   Clear
4:55 AM 30.2 °F 28.6 °F 94% 30.52 in 10.0 mi North - - N/A   Clear
5:15 AM 30.0 °F 28.4 °F 94% 30.52 in 10.0 mi North - - N/A   Clear
5:55 AM 29.5 °F 27.9 °F 94% 30.54 in 10.0 mi North - - N/A   Clear
6:15 AM 29.5 °F 28.0 °F 94% 30.54 in 10.0 mi North - - N/A   Clear
6:35 AM 28.9 °F 27.7 °F 95% 30.54 in 10.0 mi North - - N/A   Clear
6:55 AM 29.1 °F 27.7 °F 94% 30.54 in 10.0 mi North - - N/A   Clear
7:15 AM 29.1 °F 28.0 °F 96% 30.54 in 10.0 mi North - - N/A   Clear
7:35 AM 29.3 °F 28.2 °F 96% 30.54 in 10.0 mi North - - N/A   Clear
7:55 AM 29.7 °F 28.6 °F 96% 30.54 in 10.0 mi North - - N/A   Clear
8:15 AM 32.0 °F 30.6 °F 94% 30.54 in 10.0 mi North - - N/A   Clear
8:55 AM 38.5 °F 34.9 °F 87% 30.53 in 10.0 mi North - - N/A   Clear
9:15 AM 45.3 °F 36.1 °F 70% 30.53 in 10.0 mi North - - N/A   Clear
9:35 AM 48.4 °F 36.7 °F 64% 30.53 in 10.0 mi North - - N/A   Clear
9:55 AM 50.0 °F 37.2 °F 62% 30.53 in 10.0 mi North - - N/A   Clear
10:15 AM 51.3 °F 37.6 °F 60% 30.52 in 10.0 mi North - - N/A   Clear
10:35 AM 51.3 °F 37.8 °F 60% 30.52 in 10.0 mi North - - N/A   Clear
10:55 AM 52.7 °F 38.5 °F 58% 30.52 in 10.0 mi North - - N/A   Clear
11:15 AM 53.6 °F 38.3 °F 56% 30.51 in 10.0 mi North - - N/A   Clear
11:35 AM 54.9 °F 38.5 °F 54% 30.50 in 10.0 mi North - - N/A   Clear
11:55 AM 55.4 °F 38.5 °F 53% 30.49 in 10.0 mi North - - N/A   Clear
12:15 PM 55.8 °F 38.5 °F 52% 30.48 in 10.0 mi North - - N/A   Clear
12:55 PM 57.6 °F 38.8 °F 50% 30.46 in 10.0 mi North - - N/A   Clear
1:15 PM 58.3 °F 39.4 °F 49% 30.45 in 10.0 mi North - - N/A   Clear
1:35 PM 59.0 °F 38.8 °F 47% 30.45 in 10.0 mi North - - N/A   Clear
1:55 PM 60.4 °F 38.8 °F 45% 30.44 in 10.0 mi North - - N/A   Clear
2:15 PM 60.1 °F 38.7 °F 45% 30.43 in 10.0 mi North - - N/A   Clear
2:35 PM 59.5 °F 37.8 °F 44% 30.43 in 10.0 mi North - - N/A   Clear
2:55 PM 60.1 °F 38.7 °F 45% 30.43 in 10.0 mi North - - N/A   Clear
3:15 PM 60.1 °F 37.6 °F 43% 30.43 in 10.0 mi North - - N/A   Clear
3:35 PM 57.9 °F 37.2 °F 46% 30.43 in 10.0 mi North - - N/A   Clear
3:55 PM 56.1 °F 37.0 °F 49% 30.44 in 10.0 mi North - - N/A   Clear
4:15 PM 54.7 °F 37.9 °F 53% 30.43 in 10.0 mi North - - N/A   Clear
4:55 PM 51.8 °F 38.1 °F 60% 30.44 in 10.0 mi North - - N/A   Clear
5:15 PM 48.0 °F 38.5 °F 70% 30.44 in 10.0 mi North - - N/A   Clear
5:55 PM 44.4 °F 37.8 °F 77% 30.45 in 10.0 mi North - - N/A   Clear
6:15 PM 43.2 °F 37.6 °F 81% 30.45 in 10.0 mi North - - N/A   Clear
6:35 PM 42.4 °F 37.0 °F 81% 30.46 in 10.0 mi North - - N/A   Clear
6:55 PM 41.4 °F 36.5 °F 83% 30.46 in 10.0 mi North - - N/A   Clear
7:15 PM 39.9 °F 35.8 °F 85% 30.47 in 10.0 mi North - - N/A   Clear
7:35 PM 39.4 °F 35.8 °F 87% 30.47 in 10.0 mi North - - N/A   Clear
7:55 PM 39.2 °F 36.1 °F 89% 30.47 in 10.0 mi North - - N/A   Clear
8:15 PM 37.9 °F 35.4 °F 91% 30.46 in 10.0 mi North - - N/A   Clear
8:55 PM 37.2 °F 35.2 °F 93% 30.46 in 10.0 mi North - - N/A   Clear
9:15 PM 36.5 °F 34.9 °F 94% 30.47 in 10.0 mi North - - N/A   Clear
9:35 PM 35.8 °F 34.7 °F 96% 30.46 in 10.0 mi North - - N/A   Clear
9:55 PM 34.9 °F 33.8 °F 96% 30.46 in 10.0 mi North - - N/A   Clear
10:15 PM 34.5 °F 33.3 °F 95% 30.47 in 10.0 mi North - - N/A   Clear
10:35 PM 34.2 °F 33.4 °F 97% 30.45 in 10.0 mi North - - N/A   Clear
10:55 PM 33.6 °F 32.9 °F 97% 30.45 in 10.0 mi North - - N/A   Clear
11:15 PM 33.1 °F 32.7 °F 99% 30.44 in 10.0 mi North - - N/A   Clear
11:35 PM 32.4 °F 32.0 °F 99% 30.44 in 10.0 mi North - - N/A   Clear
11:55 PM 32.2 °F 32.0 °F 99% 30.44 in 10.0 mi North - - N/A   Clear